| time (UTC) | temp F | wind direction | speed MPH | gust MPH | rain 1hr in | rain 24hr in | rain mn in | humidity % | barometer mb |
| 20260504081538 | 54 | 290 | 10.0 | 20.0 | 0.00 | 0.00 | 0.00 | 85 | 1010.5 |
| 20260504044543 | 65 | 287 | 7.0 | 14.0 | 0.00 | 0.00 | 0.00 | 63 | 1009.1 |
| 20260504043045 | 67 | 280 | 9.0 | 15.0 | 0.00 | 0.00 | 0.00 | 58 | 1008.7 |
| 20260504041541 | 70 | 273 | 8.0 | 17.0 | 0.00 | 0.00 | 0.00 | 52 | 1008.3 |
| 20260504040104 | 73 | 313 | 8.0 | 16.0 | 0.00 | 0.00 | 0.00 | 47 | 1008.2 |
| 20260504034553 | 74 | 266 | 9.0 | 15.0 | 0.00 | 0.00 | 0.00 | 45 | 1008.0 |
| 20260504033040 | 76 | 277 | 6.0 | 13.0 | 0.00 | 0.00 | 0.00 | 43 | 1007.9 |
| 20260504031540 | 77 | 303 | 4.0 | 9.0 | 0.00 | 0.00 | 0.00 | 39 | 1007.7 |
| 20260504024538 | 81 | 288 | 5.0 | 10.0 | 0.00 | 0.00 | 0.00 | 34 | 1007.6 |
| 20260504023043 | 82 | 273 | 5.0 | 10.0 | 0.00 | 0.00 | 0.00 | 33 | 1007.7 |
| 20260504021538 | 83 | 259 | 5.0 | 7.0 | 0.00 | 0.00 | 0.00 | 32 | 1007.8 |
| 20260504020037 | 84 | 285 | 5.0 | 8.0 | 0.00 | 0.00 | 0.00 | 30 | 1007.7 |
| 20260504014543 | 85 | 259 | 5.0 | 10.0 | 0.00 | 0.00 | 0.00 | 30 | 1007.7 |
| 20260504013048 | 86 | 266 | 6.0 | 13.0 | 0.00 | 0.00 | 0.00 | 30 | 1007.7 |
| 20260504011541 | 86 | 271 | 4.0 | 9.0 | 0.00 | 0.00 | 0.00 | 30 | 1007.7 |
| 20260504010117 | 87 | 278 | 5.0 | 8.0 | 0.00 | 0.00 | 0.00 | 31 | 1007.7 |
| 20260504004540 | 87 | 276 | 5.0 | 9.0 | 0.00 | 0.00 | 0.00 | 31 | 1007.8 |
| 20260504003037 | 89 | 278 | 1.0 | 3.0 | 0.00 | 0.00 | 0.00 | 30 | 1007.9 |
| 20260504001557 | 89 | 274 | 0.0 | 1.0 | 0.00 | 0.00 | 0.00 | 27 | 1007.8 |
| 20260504000044 | 88 | 0 | 0.0 | 3.0 | 0.00 | 0.00 | 0.00 | 26 | 1007.9 |
| 20260503234543 | 88 | 0 | 0.0 | 4.0 | 0.00 | 0.00 | 0.00 | 27 | 1007.9 |
| 20260503233040 | 88 | 127 | 0.0 | 3.0 | 0.00 | 0.00 | 0.00 | 27 | 1008.1 |
| 20260503231540 | 88 | 200 | 0.0 | 2.0 | 0.00 | 0.00 | 0.00 | 30 | 1008.2 |
| 20260503230046 | 88 | 0 | 1.0 | 3.0 | 0.00 | 0.00 | 0.00 | 29 | 1008.5 |
| 20260503224542 | 88 | 0 | 1.0 | 4.0 | 0.00 | 0.00 | 0.00 | 29 | 1008.8 |
| 20260503223043 | 89 | 0 | 0.0 | 4.0 | 0.00 | 0.00 | 0.00 | 31 | 1009.0 |
| 20260503221545 | 89 | 3 | 0.0 | 3.0 | 0.00 | 0.00 | 0.00 | 30 | 1009.3 |
| 20260503220043 | 89 | 229 | 0.0 | 1.0 | 0.00 | 0.00 | 0.00 | 30 | 1009.4 |
| 20260503214539 | 89 | 0 | 0.0 | 2.0 | 0.00 | 0.00 | 0.00 | 33 | 1009.6 |
| 20260503213045 | 88 | 160 | 1.0 | 4.0 | 0.00 | 0.00 | 0.00 | 28 | 1009.7 |
| 20260503211537 | 88 | 207 | 0.0 | 3.0 | 0.00 | 0.00 | 0.00 | 35 | 1009.8 |
| 20260503210043 | 87 | 0 | 0.0 | 3.0 | 0.00 | 0.00 | 0.00 | 36 | 1010.0 |
| 20260503204552 | 87 | 18 | 0.0 | 3.0 | 0.00 | 0.00 | 0.00 | 38 | 1010.1 |
| 20260503203042 | 86 | 129 | 0.0 | 4.0 | 0.00 | 0.00 | 0.00 | 40 | 1010.4 |
| 20260503201539 | 85 | 230 | 1.0 | 3.0 | 0.00 | 0.00 | 0.00 | 42 | 1010.7 |
| 20260503200038 | 84 | 0 | 1.0 | 5.0 | 0.00 | 0.00 | 0.00 | 44 | 1010.7 |
| 20260503194539 | 83 | 130 | 0.0 | 4.0 | 0.00 | 0.00 | 0.00 | 44 | 1010.8 |
| 20260503193055 | 82 | 145 | 0.0 | 5.0 | 0.00 | 0.00 | 0.00 | 45 | 1011.0 |
| 20260503191544 | 81 | 0 | 0.0 | 2.0 | 0.00 | 0.00 | 0.00 | 45 | 1011.1 |
| 20260503190053 | 80 | 172 | 0.0 | 3.0 | 0.00 | 0.00 | 0.00 | 49 | 1011.1 |
| 20260503184541 | 79 | 150 | 1.0 | 4.0 | 0.00 | 0.00 | 0.00 | 52 | 1011.3 |
| 20260503183054 | 78 | 0 | 0.0 | 3.0 | 0.00 | 0.00 | 0.00 | 54 | 1011.5 |
| 20260503181543 | 76 | 129 | 0.0 | 3.0 | 0.00 | 0.00 | 0.00 | 56 | 1011.6 |
| 20260503180054 | 75 | 105 | 2.0 | 5.0 | 0.00 | 0.00 | 0.00 | 55 | 1011.6 |
| 20260503174542 | 75 | 0 | 0.0 | 1.0 | 0.00 | 0.00 | 0.00 | 58 | 1011.6 |
| 20260503173103 | 73 | 94 | 0.0 | 2.0 | 0.00 | 0.00 | 0.00 | 61 | 1011.6 |
| 20260503171549 | 72 | 0 | 0.0 | 2.0 | 0.00 | 0.00 | 0.00 | 64 | 1011.7 |